Regional Weather Roundup
Issued by NWS

Home | Current Version | Previous Version | Graphics & Text | Print | Product List | Glossary On
Versions: 1 2 3 4 5 6 7 8 9 10 11 12 13 14 15 16 17 18 19 20 21 22 23 24 25 26 27 28 29 30 31 32 33 34 35 36 37 38 39 40 41 42 43 44 45 46 47 48 49 50
000
ASUS43 KOAX 151102
RWRNE

WEATHER ROUNDUP FOR NEBRASKA
NATIONAL WEATHER SERVICE OMAHA NE
600 AM CDT TUE APR 15 2014

NOTES: SATELLITE DATA IS BEING USED TO AUGMENT CLOUD COVER ABOVE
       12000 FEET.
       "FAIR" INDICATES FEW OR NO CLOUDS BELOW 12,000 FEET WITH NO
       SIGNIFICANT WEATHER AND/OR OBSTRUCTIONS TO VISIBILITY.

  * THESE STATIONS DO NOT REPORT WEATHER SUCH AS RAIN...SNOW OR FOG.

NEZ001>004-019>022-054>056-151200-
NEBRASKA PANHANDLE

CITY           SKY/WX    TMP DP  RH WIND       PRES   REMARKS
SCOTTSBLUFF    CLEAR     21  17  84 E5        29.96F WCI  15
ALLIANCE       CLEAR     25  17  72 S7        29.94F WCI  17
CHADRON        CLEAR     25  19  78 W6        29.91F WCI  18
KIMBALL        CLEAR     26  19  72 W10       29.96F WCI  16
SIDNEY         CLEAR     26  17  68 SW13      29.99F WCI  15
$$

NEZ057>060-069>072-079>082-151200-
SOUTHWEST NEBRASKA

CITY           SKY/WX    TMP DP  RH WIND       PRES   REMARKS
NORTH PLATTE   CLEAR     19  15  84 E3        30.06F
IMPERIAL       CLEAR     28  19  69 SW8       30.05F WCI  20
LEXINGTON      CLEAR     25  19  77 SE3       30.11F
MCCOOK         CLEAR     25  22  88 W3        30.11F
OGALLALA       CLEAR     21  19  89 SW3       30.03F
$$

NEZ005>010-023>029-035>040-094-151200-
NORTH CENTRAL NEBRASKA

CITY           SKY/WX    TMP DP  RH WIND       PRES   REMARKS
VALENTINE      CLEAR     26  13  57 S10       30.01F WCI  16
AINSWORTH      CLEAR     22  16  78 S9        30.05F WCI  12
BROKEN BOW     CLEAR     18  14  84 CALM      30.09F
O`NEILL        CLEAR     17  11  77 S5        30.11F WCI  10
ORD            CLEAR     19  14  81 CALM      30.13S
THEDFORD       CLEAR     25  15  67 S5        30.03F WCI  19
$$

NEZ041-046>049-061>064-073>077-083>087-151200-
SOUTH CENTRAL NEBRASKA

CITY           SKY/WX    TMP DP  RH WIND       PRES   REMARKS
GRAND ISLAND   CLEAR     25  21  85 CALM      30.16F
HASTINGS       CLEAR     28  23  81 S5        30.15S WCI  23
HEBRON         CLEAR     23  20  91 CALM      30.18S
HOLDREGE       CLEAR     26  19  77 CALM      30.13S
YORK           PTCLDY    25  25 100 CALM      30.16F
$$

NEZ011>018-030>034-042>045-151200-
NORTHEAST NEBRASKA

CITY           SKY/WX    TMP DP  RH WIND       PRES   REMARKS
NORFOLK        CLEAR     21  16  81 CALM      30.14F
ALBION         PTCLDY    22  17  82 CALM      30.15S
BLAIR          CLEAR     26  16  66 N6        30.16F WCI  19
COLUMBUS *     CLEAR     21  18  86 CALM      30.17S
FREMONT        CLEAR     22  18  86 NW3       30.18S
TEKAMAH        CLEAR     22  16  78 N7        30.19F WCI  13
$$

NEZ050>053-065>068-078-088>093-151200-
SOUTHEAST NEBRASKA

CITY           SKY/WX    TMP DP  RH WIND       PRES   REMARKS
LINCOLN        CLEAR     19  15  84 CALM      30.19F
OMAHA EPPLEY   CLEAR     25  20  81 N5        30.19S WCI  19
BEATRICE       CLOUDY    20  18  93 CALM      30.18R FOG
FALLS CITY     CLEAR     26  23  88 CALM      30.18S
$$

NEZ044-045-051>053-067-151200-
OMAHA AREA

CITY           SKY/WX    TMP DP  RH WIND       PRES   REMARKS
OMAHA EPPLEY   CLEAR     25  20  81 N5        30.19S WCI  19
BLAIR          CLEAR     26  16  66 N6        30.16F WCI  19
FREMONT        CLEAR     22  18  86 NW3       30.18S
OFFUTT AFB     CLEAR     20  19  96 CALM      30.18F
$$



USA.gov is the U.S. government's official web portal to all federal, state and local government web resources and services.